Location: *
(58.7167°N, 26.1833°E)
Time: 22:14:52
(UTC+00:00)

NOSS 2-1 (C) - Pass Details

Date: 25 August 2019
Orbit: 462 x 1742 km, 63.3° (Epoch: 13 September)

Event Time Altitude Azimuth Distance (km) Brightness Sun altitude
Exits shadow 21:53:58 68° 158° (SSE) 571 3.1 -20.5°
Maximum altitude 21:54:06 69° 142° (SE) 571 3.1 -20.5°
Drops below altitude 10° 21:58:25 10° 60° (ENE) 2,007 6.5 -20.6°
Sets 22:01:01 0° 58° (ENE) 3,093 7.5 -20.6°
